Showing default

ASTROCAST-01, 43798

Orbit data source: Space-Track

ASTROCAST-01, 43798 is a payload satellite owned by Astrocast (CH) in SSO that was launched on Mon, 03 Dec 2018 UTC via an FALCON 9 launch vehicle from the Air Force Western Test Range (AFWTR). Payload-class satellites include a variety of spacecraft equipped with specific instruments for various scientific and technological missions. These include communications satellites like Starlink; space stations such as the ISS; scientific satellites like the Hubble; Earth observation satellites from companies like Planet Labs, Umbra, and HawkEye 360; GPS; miniature CubeSats for education and research; and military/defense satellites.

Loading next visibility...
Identifier
43798, 2018-099AS
Orbit
SSO
Country
Flag of CHCH / SWTZ
Related business
Manufacturer
Astrocast
Mission
Operational Commercial Communications
Bus & Motor
CUBESAT 3U, Unknown motor
Mass
5 kg wet, 5 kg dry
Launch date (UTC)
2018-12-03 (8 years ago)
Launch vehicle
FALCON 9
Launch site
Air Force Western Test Range (AFWTR)
Object type
Payload
Rocket body
Debris
Shape & HBR
Box, 0.1 m
Radar Cross Section
0.035 m², Medium (>0.1 m² and < 1m²)

Expand to show TLE details & history
Last TLE update: 5 days ago

TLE from 5 days ago
0 ASTROCAST-01
1 43798U 18099AS  26155.27770858  .00039731  00000-0  74214-3 0  9995
2 43798  97.4382 233.3802 0004124 254.1593 105.9204 15.48650576412439
Epoch: 2026-06-04T06:39Z
TLE epoch observation values (Epoch: 2026-06-04T06:39:54.021Z)
Latitude
0.00008°
Longitude
-119.31917°
Altitude
424.571 km
Speed
7.656 km/s
True Right ascension
15h 33m 31s
True Declination
0° 00' 00"
Sunlit
Object was in full shadow at epoch
Visualization orbit readout
Latitude
Unknown
Longitude
Unknown
Altitude
Unknown
Speed
Unknown
Apparent Right ascension
Unknown
Apparent Declination
Unknown
Sunlit
N/A
Visualization observer readout
Local Sidereal Time
18:40:40
Azimuth
Unknown
Elevation
Unknown
Doppler factor
Unknown
Orbital elements
Apogee altitude
420.404 km
Perigee altitude
414.799 km
Semi-major axis
6,795.739 km
Eccentricity
0.00041
Inclination
97.4382°
RAAN
233.3802°
Arg. of periapsis
254.1593°
True anomaly
105.96584°
Mean anomaly
105.9204°
Eccentric anomaly
105.94312°
Mean motion
3.87425 °/min
Orbital period
92.92 mins
BSTAR
0.00074214
Loading maneuver chart data...
Computing Atmospheric mass density...
Loading historical data...
Loading historical data...
Loading historical data...
Loading historical data...
Loading historical data...
Loading historical data...
Loading historical data...

Documentation

Showing up to 5 results
|